Weather History for Dallas Addison, TX

Change the Weather History Date:

Saturday, July 13, 2013

  Actual Average Record
Temperature  
Mean Temperature 88 °F -  
Max Temperature 96 °F 94 °F 104 °F (2000)
Min Temperature 80 °F 75 °F 71 °F (1999)
Cooling Degree Days 23    
Growing Degree Days 38 (Base 50)    
Moisture  
Dew Point 63 °F    
Average Humidity 46    
Maximum Humidity 65    
Minimum Humidity 30    
Precipitation  
Precipitation 0.00 in - - ()
Sea Level Pressure  
Sea Level Pressure 29.95 in    
Wind  
Wind Speed 10 mph (ESE)    
Max Wind Speed 14 mph    
Max Gust Speed 21 mph    
Visibility 12 miles    
Events      
Averages and records for this station are not official NWS values.
T = Trace of Precipitation, MM = Missing Value Source: NWS Daily Summary

Daily Weather History Graph

Daily Weather History Graph

Search for Another Location

Airport:

Trip Planner

Search our weather history database for the weather conditions in past years. The results will help you decide how hot, cold, wet, or windy it might be!

Date:

Astronomy

Jul. 13, 2013 Rise Set
Actual Time 6:28 AM CDT 8:37 PM CDT
Civil Twilight 6:00 AM CDT 9:05 PM CDT
Nautical Twilight 5:26 AM CDT 9:39 PM CDT
Astronomical Twilight 4:49 AM CDT 10:16 PM CDT
Moon 11:26 AM CDT (7/13) 11:39 PM CDT (7/13)
Length of Visible Light 15h 04m
Length of Day
14h 08m
Waxing Crescent, 26% of the Moon is Illuminated
Jul 13
Waxing Crescent
Jul 15
First Quarter
Jul 22
Full
Jul 29
Last Quarter
Aug 6
New

Hourly Weather History & Observations

Time (CDT) Temp. Heat Index Dew Point Humidity Pressure Visibility Wind Dir Wind Speed Gust Speed Precip Events Conditions
12:15 AM 87.8 °F 89.4 °F 64.4 °F 46% 29.94 in 10.0 mi East 10.4 mph - N/A   Clear
12:35 AM 87.8 °F 89.4 °F 64.4 °F 46% 29.94 in 10.0 mi ESE 9.2 mph - N/A   Clear
12:55 AM 87.8 °F 90.4 °F 66.2 °F 49% 29.95 in 10.0 mi East 10.4 mph - N/A   Clear
1:15 AM 86.0 °F 88.2 °F 66.2 °F 51% 29.95 in 10.0 mi ESE 8.1 mph - N/A   Clear
1:55 AM 86.0 °F 87.3 °F 64.4 °F 48% 29.95 in 10.0 mi ESE 13.8 mph 18.4 mph N/A   Clear
2:15 AM 86.0 °F 88.2 °F 66.2 °F 51% 29.95 in 10.0 mi ESE 12.7 mph 17.3 mph N/A   Clear
2:35 AM 86.0 °F 87.3 °F 64.4 °F 48% 29.94 in 10.0 mi ESE 11.5 mph 19.6 mph N/A   Clear
2:55 AM 84.2 °F 86.6 °F 66.2 °F 55% 29.94 in 10.0 mi ESE 10.4 mph - N/A   Clear
3:15 AM 84.2 °F 86.6 °F 66.2 °F 55% 29.94 in 10.0 mi ESE 11.5 mph - N/A   Clear
3:35 AM 82.4 °F 84.6 °F 66.2 °F 58% 29.94 in 10.0 mi ESE 11.5 mph - N/A   Clear
3:55 AM 82.4 °F 84.6 °F 66.2 °F 58% 29.95 in 10.0 mi ESE 9.2 mph - N/A   Clear
4:15 AM 82.4 °F 84.6 °F 66.2 °F 58% 29.95 in 10.0 mi ESE 10.4 mph - N/A   Clear
4:35 AM 82.4 °F 84.6 °F 66.2 °F 58% 29.95 in 10.0 mi SE 9.2 mph - N/A   Clear
4:55 AM 82.4 °F 84.6 °F 66.2 °F 58% 29.95 in 10.0 mi SE 10.4 mph - N/A   Clear
5:15 AM 82.4 °F 84.6 °F 66.2 °F 58% 29.96 in 10.0 mi ESE 10.4 mph - N/A   Clear
5:35 AM 80.6 °F 82.7 °F 66.2 °F 61% 29.96 in 10.0 mi ESE 11.5 mph - N/A   Clear
5:55 AM 80.6 °F 82.7 °F 66.2 °F 61% 29.97 in 10.0 mi ESE 10.4 mph - N/A   Clear
5:58 AM 80.6 °F 83.2 °F 68.0 °F 65% 29.98 in 13.0 mi East 9.2 mph 17.3 mph N/A   Clear
6:47 AM 80.6 °F 83.2 °F 68.0 °F 65% 29.99 in 13.0 mi East 8.1 mph - N/A   Clear
7:47 AM 80.6 °F 82.7 °F 66.2 °F 61% 30.00 in 13.0 mi East 12.7 mph - N/A   Clear
8:47 AM 82.4 °F 83.4 °F 62.6 °F 51% 30.01 in 10.0 mi ESE 11.5 mph 19.6 mph N/A   Clear
9:47 AM 86.0 °F 86.1 °F 60.8 °F 43% 30.01 in 13.0 mi East 10.4 mph 18.4 mph N/A   Clear
10:47 AM 87.8 °F 88.5 °F 62.6 °F 43% 30.00 in 10.0 mi ESE 10.4 mph - N/A   Clear
11:47 AM 89.6 °F 90.1 °F 62.6 °F 40% 30.00 in 13.0 mi SE 9.2 mph 19.6 mph N/A   Clear
12:51 PM 93.2 °F 94.9 °F 64.4 °F 38% 29.98 in 15.0 mi ENE 6.9 mph - N/A   Clear
1:55 PM 95.0 °F 96.0 °F 62.6 °F 34% 29.97 in 15.0 mi ESE 4.6 mph - N/A   Clear
2:47 PM 96.8 °F 98.0 °F 62.6 °F 32% 29.94 in 15.0 mi Calm Calm - N/A   Mostly Cloudy
3:50 PM 96.8 °F 98.0 °F 62.6 °F 32% 29.92 in 15.0 mi East 6.9 mph - N/A   Mostly Cloudy
4:55 PM 96.8 °F 98.0 °F 62.6 °F 32% 29.91 in 15.0 mi East 10.4 mph 15.0 mph N/A   Mostly Cloudy
5:50 PM 96.8 °F 97.1 °F 60.8 °F 30% 29.90 in 15.0 mi East 9.2 mph 17.3 mph N/A   Mostly Cloudy
7:47 PM 93.2 °F 92.6 °F 59.0 °F 32% 29.89 in 15.0 mi East 12.7 mph - N/A   Scattered Clouds
8:53 PM 89.6 °F 88.9 °F 59.0 °F 36% 29.91 in 13.0 mi East 12.7 mph - N/A   Mostly Cloudy
9:47 PM 87.8 °F 87.1 °F 59.0 °F 38% 29.92 in 15.0 mi East 13.8 mph 20.7 mph N/A   Mostly Cloudy
10:15 PM 87.8 °F 86.1 °F 55.4 °F 33% 29.92 in 10.0 mi East 11.5 mph 17.3 mph N/A   Clear
10:35 PM 86.0 °F 84.2 °F 53.6 °F 33% 29.92 in 10.0 mi ESE 11.5 mph 18.4 mph N/A   Clear
10:55 PM 86.0 °F 84.2 °F 53.6 °F 33% 29.93 in 10.0 mi ESE 9.2 mph - N/A   Clear
11:15 PM 86.0 °F 84.2 °F 53.6 °F 33% 29.94 in 10.0 mi ESE 8.1 mph - N/A   Clear
11:35 PM 84.2 °F 82.8 °F 53.6 °F 35% 29.94 in 10.0 mi ESE 11.5 mph - N/A   Clear
11:55 PM 84.2 °F - 51.8 °F 33% 29.95 in 10.0 mi SE 11.5 mph - N/A   Clear